Location: Misciano
(43.5000°N, 11.9500°E)
Time: 07:12:45
(UTC+00:00)

Cosmos 1140 Rocket - Pass Details

Date: 13 August 2020
Orbit: 745 x 767 km, 74.1° (Epoch: 26 September)

Event Time Altitude Azimuth Distance (km) Brightness Sun altitude
Rises 19:00:50 0° 192° (SSW) 3,217 6.6 -7.9°
Reaches altitude 10° 19:03:12 10° 189° (S) 2,297 5.8 -8.3°
Maximum altitude 19:08:23 70° 107° (ESE) 818 3.5 -9.1°
Drops below altitude 10° 19:13:36 10° 25° (NNE) 2,313 6.1 -9.9°
Sets 19:16:00 0° 23° (NNE) 3,242 6.9 -10.3°
